Retour au catalogue

DELTA 1 DEB

ActifPO
NORAD 21270·DEBRIS·🇺🇸 United States

Lancé Jun 12, 1975 depuis Vandenberg Space Force Base

Loading…

Prochains Passages (prochaines 24 heures)

TLE

FraisSource: Space-Track

Époque: Sep 14, 2026, 12:14 UTC

1 21270U 75052F   26257.50976897  .00000405  00000-0  17000-2 0  9993
2 21270  99.4350 273.7550 0441415  24.3936 126.5690 12.61416719620431

Suivez DELTA 1 DEB en temps réel avec AllMySat

Download on the App Store